Time,TemperatureF,DewpointF,PressureIn,WindDirection,WindDirectionDegrees,WindSpeedMPH,WindSpeedGustMPH,Humidity,HourlyPrecipIn,Conditions,Clouds,dailyrainin,SoftwareType,DateUTC
2013-08-21 00:00:00,75.5,67.8,30.03,WSW,246,0.0,0.0,77,0.00,,---,0.00,VWS V14.01,2013-08-21 05:00:00,
2013-08-21 00:02:00,75.4,68.1,30.03,WSW,246,0.0,2.0,78,0.00,,---,0.00,VWS V14.01,2013-08-21 05:02:00,
2013-08-21 00:07:00,75.3,68.0,30.03,WSW,246,0.0,2.0,78,0.00,,---,0.00,VWS V14.01,2013-08-21 05:07:00,
2013-08-21 00:10:00,75.3,68.0,30.03,WSW,246,0.0,2.0,78,0.00,,---,0.00,VWS V14.01,2013-08-21 05:10:00,
2013-08-21 00:12:00,75.2,67.9,30.03,WSW,246,0.0,1.0,78,0.00,,---,0.00,VWS V14.01,2013-08-21 05:12:00,
2013-08-21 00:17:00,75.1,67.8,30.03,WSW,246,0.0,0.0,78,0.00,,---,0.00,VWS V14.01,2013-08-21 05:17:00,
2013-08-21 00:20:00,75.1,67.8,30.03,WSW,246,0.0,1.0,78,0.00,,---,0.00,VWS V14.01,2013-08-21 05:20:00,
2013-08-21 00:22:00,75.0,67.7,30.03,WSW,246,0.0,1.0,78,0.00,,---,0.00,VWS V14.01,2013-08-21 05:22:00,
2013-08-21 00:27:00,75.0,68.1,30.03,WSW,245,1.0,1.0,79,0.00,,---,0.00,VWS V14.01,2013-08-21 05:27:00,
2013-08-21 00:32:00,74.9,67.6,30.03,WSW,245,0.0,1.0,78,0.00,,---,0.00,VWS V14.01,2013-08-21 05:32:00,
2013-08-21 00:37:00,74.9,67.6,30.03,WSW,245,0.0,0.0,78,0.00,,---,0.00,VWS V14.01,2013-08-21 05:37:00,
2013-08-21 00:40:00,74.9,67.6,30.03,WSW,245,0.0,2.0,78,0.00,,---,0.00,VWS V14.01,2013-08-21 05:40:00,
2013-08-21 00:42:00,74.9,67.6,30.03,WSW,245,0.0,1.0,78,0.00,,---,0.00,VWS V14.01,2013-08-21 05:42:00,
2013-08-21 00:47:00,74.9,67.6,30.03,WSW,245,0.0,0.0,78,0.00,,---,0.00,VWS V14.01,2013-08-21 05:47:00,
2013-08-21 00:52:00,75.0,67.7,30.03,WSW,245,0.0,1.0,78,0.00,,---,0.00,VWS V14.01,2013-08-21 05:52:00,
2013-08-21 00:57:00,75.0,67.3,30.03,South,177,2.0,2.0,77,0.00,,---,0.00,VWS V14.01,2013-08-21 05:57:00,
2013-08-21 01:02:00,75.1,67.4,30.03,SSW,205,3.0,4.0,77,0.00,,---,0.00,VWS V14.01,2013-08-21 06:02:00,
2013-08-21 01:07:00,75.2,67.5,30.03,South,173,0.0,2.0,77,0.00,,---,0.00,VWS V14.01,2013-08-21 06:07:00,
2013-08-21 01:10:00,75.2,67.5,30.03,South,173,1.0,4.0,77,0.00,,---,0.00,VWS V14.01,2013-08-21 06:10:00,
2013-08-21 01:12:00,75.3,67.6,30.03,SW,234,0.0,5.0,77,0.00,,---,0.00,VWS V14.01,2013-08-21 06:12:00,
2013-08-21 01:17:00,75.3,67.2,30.03,ENE,64,0.0,1.0,76,0.00,,---,0.00,VWS V14.01,2013-08-21 06:17:00,
2013-08-21 01:20:00,75.3,67.2,30.03,ENE,64,1.0,5.0,76,0.00,,---,0.00,VWS V14.01,2013-08-21 06:20:00,
2013-08-21 01:22:00,75.4,67.3,30.03,ENE,68,1.0,2.0,76,0.00,,---,0.00,VWS V14.01,2013-08-21 06:22:00,
2013-08-21 01:27:00,75.5,67.4,30.03,SW,225,0.0,0.0,76,0.00,,---,0.00,VWS V14.01,2013-08-21 06:27:00,
2013-08-21 01:32:00,75.5,67.0,30.03,ESE,121,0.0,2.0,75,0.00,,---,0.00,VWS V14.01,2013-08-21 06:32:00,
2013-08-21 01:37:00,75.5,67.0,30.03,South,177,0.0,0.0,75,0.00,,---,0.00,VWS V14.01,2013-08-21 06:37:00,
2013-08-21 01:40:00,75.5,67.0,30.03,South,177,0.0,4.0,75,0.00,,---,0.00,VWS V14.01,2013-08-21 06:40:00,
2013-08-21 01:42:00,75.5,67.0,30.03,SSW,192,1.0,9.0,75,0.00,,---,0.00,VWS V14.01,2013-08-21 06:42:00,
2013-08-21 01:47:00,75.6,67.1,30.03,SW,217,0.0,1.0,75,0.00,,---,0.00,VWS V14.01,2013-08-21 06:47:00,
2013-08-21 01:50:00,75.5,67.0,30.03,SW,217,0.0,9.0,75,0.00,,---,0.00,VWS V14.01,2013-08-21 06:50:00,
2013-08-21 01:52:00,75.6,67.1,30.03,SSE,153,2.0,2.0,75,0.00,,---,0.00,VWS V14.01,2013-08-21 06:52:00,
2013-08-21 01:57:00,75.6,67.1,30.03,SSW,211,1.0,1.0,75,0.00,,---,0.00,VWS V14.01,2013-08-21 06:57:00,
2013-08-21 02:00:00,75.6,67.1,30.03,SSW,211,0.0,4.0,75,0.00,,---,0.00,VWS V14.01,2013-08-21 07:00:00,
2013-08-21 02:02:00,75.6,67.1,30.04,South,189,0.0,4.0,75,0.00,,---,0.00,VWS V14.01,2013-08-21 07:02:00,
2013-08-21 02:07:00,75.6,67.1,30.04,SSW,209,2.0,5.0,75,0.00,,---,0.00,VWS V14.01,2013-08-21 07:07:00,
2013-08-21 02:10:00,75.6,67.1,30.03,South,189,1.0,4.0,75,0.00,,---,0.00,VWS V14.01,2013-08-21 07:10:00,
2013-08-21 02:12:00,75.5,67.0,30.04,SSW,194,0.0,5.0,75,0.00,,---,0.00,VWS V14.01,2013-08-21 07:12:00,
2013-08-21 02:18:00,75.4,66.9,30.03,SSW,194,0.0,0.0,75,0.00,,---,0.00,VWS V14.01,2013-08-21 07:18:00,
2013-08-21 02:20:00,75.4,66.9,30.03,SSW,194,0.0,5.0,75,0.00,,---,0.00,VWS V14.01,2013-08-21 07:20:00,
2013-08-21 02:23:00,75.3,67.2,30.03,SSW,194,0.0,2.0,76,0.00,,---,0.00,VWS V14.01,2013-08-21 07:23:00,
2013-08-21 02:28:00,75.2,67.1,30.03,SSW,195,0.0,1.0,76,0.00,,---,0.00,VWS V14.01,2013-08-21 07:28:00,
2013-08-21 02:30:00,75.2,67.1,30.03,SSW,195,0.0,3.0,76,0.00,,---,0.00,VWS V14.01,2013-08-21 07:30:00,
2013-08-21 02:33:00,75.1,67.0,30.03,SSW,194,0.0,2.0,76,0.00,,---,0.00,VWS V14.01,2013-08-21 07:33:00,
2013-08-21 02:38:00,74.9,66.8,30.03,SSW,198,0.0,0.0,76,0.00,,---,0.00,VWS V14.01,2013-08-21 07:38:00,
2013-08-21 02:40:00,75.0,66.9,30.03,SSW,198,0.0,3.0,76,0.00,,---,0.00,VWS V14.01,2013-08-21 07:40:00,
2013-08-21 02:43:00,74.8,66.7,30.03,SSW,198,0.0,0.0,76,0.00,,---,0.00,VWS V14.01,2013-08-21 07:43:00,
2013-08-21 02:48:00,74.6,66.9,30.03,SSW,198,0.0,0.0,77,0.00,,---,0.00,VWS V14.01,2013-08-21 07:48:00,
2013-08-21 02:50:00,74.7,67.0,30.02,SSW,198,0.0,0.0,77,0.00,,---,0.00,VWS V14.01,2013-08-21 07:50:00,
2013-08-21 02:53:00,74.5,66.8,30.02,SSW,198,0.0,1.0,77,0.00,,---,0.00,VWS V14.01,2013-08-21 07:53:00,
2013-08-21 02:58:00,74.3,66.6,30.02,SSW,198,0.0,0.0,77,0.00,,---,0.00,VWS V14.01,2013-08-21 07:58:00,
2013-08-21 03:00:00,74.3,66.6,30.02,SSW,198,0.0,1.0,77,0.00,,---,0.00,VWS V14.01,2013-08-21 08:00:00,
2013-08-21 03:03:00,74.1,66.4,30.02,SSW,198,0.0,0.0,77,0.00,,---,0.00,VWS V14.01,2013-08-21 08:03:00,
2013-08-21 03:08:00,73.9,66.6,30.02,SSW,198,0.0,0.0,78,0.00,,---,0.00,VWS V14.01,2013-08-21 08:08:00,
2013-08-21 03:10:00,73.9,66.6,30.02,SSW,198,0.0,0.0,78,0.00,,---,0.00,VWS V14.01,2013-08-21 08:10:00,
2013-08-21 03:13:00,73.7,66.8,30.02,SSW,198,0.0,0.0,79,0.00,,---,0.00,VWS V14.01,2013-08-21 08:13:00,
2013-08-21 03:18:00,73.4,66.5,30.02,SSW,198,0.0,0.0,79,0.00,,---,0.00,VWS V14.01,2013-08-21 08:18:00,
2013-08-21 03:20:00,73.5,66.6,30.03,SSW,198,0.0,0.0,79,0.00,,---,0.00,VWS V14.01,2013-08-21 08:20:00,
2013-08-21 03:23:00,73.2,66.3,30.02,SSW,198,0.0,0.0,79,0.00,,---,0.00,VWS V14.01,2013-08-21 08:23:00,
2013-08-21 03:28:00,73.0,66.1,30.03,SSW,198,0.0,0.0,79,0.00,,---,0.00,VWS V14.01,2013-08-21 08:28:00,
2013-08-21 03:30:00,73.1,66.2,30.03,SSW,198,0.0,0.0,79,0.00,,---,0.00,VWS V14.01,2013-08-21 08:30:00,
2013-08-21 03:33:00,72.8,66.3,30.03,SSW,198,0.0,0.0,80,0.00,,---,0.00,VWS V14.01,2013-08-21 08:33:00,
2013-08-21 03:38:00,72.6,66.1,30.03,SSW,198,0.0,0.0,80,0.00,,---,0.00,VWS V14.01,2013-08-21 08:38:00,
2013-08-21 03:40:00,72.6,66.1,30.03,SSW,198,0.0,0.0,80,0.00,,---,0.00,VWS V14.01,2013-08-21 08:40:00,
2013-08-21 03:43:00,72.4,65.9,30.02,SSW,198,0.0,0.0,80,0.00,,---,0.00,VWS V14.01,2013-08-21 08:43:00,
2013-08-21 03:48:00,72.2,65.7,30.02,SSW,198,0.0,0.0,80,0.00,,---,0.00,VWS V14.01,2013-08-21 08:48:00,
2013-08-21 03:50:00,72.3,65.8,30.02,SSW,198,0.0,0.0,80,0.00,,---,0.00,VWS V14.01,2013-08-21 08:50:00,
2013-08-21 03:53:00,72.0,65.9,30.02,SSW,198,0.0,0.0,81,0.00,,---,0.00,VWS V14.01,2013-08-21 08:53:00,
2013-08-21 03:58:00,71.8,65.7,30.02,SSW,198,0.0,0.0,81,0.00,,---,0.00,VWS V14.01,2013-08-21 08:58:00,
2013-08-21 04:00:00,71.9,65.8,30.02,SSW,198,0.0,0.0,81,0.00,,---,0.00,VWS V14.01,2013-08-21 09:00:00,
2013-08-21 04:03:00,71.6,65.5,30.02,SSW,198,0.0,0.0,81,0.00,,---,0.00,VWS V14.01,2013-08-21 09:03:00,
2013-08-21 04:08:00,71.4,65.6,30.02,SSW,198,0.0,0.0,82,0.00,,---,0.00,VWS V14.01,2013-08-21 09:08:00,
2013-08-21 04:10:00,71.5,65.4,30.02,SSW,198,0.0,0.0,81,0.00,,---,0.00,VWS V14.01,2013-08-21 09:10:00,
2013-08-21 04:13:00,71.2,65.8,30.02,SSW,198,0.0,0.0,83,0.00,,---,0.00,VWS V14.01,2013-08-21 09:13:00,
2013-08-21 04:18:00,71.1,65.3,30.02,SSW,198,0.0,0.0,82,0.00,,---,0.00,VWS V14.01,2013-08-21 09:18:00,
2013-08-21 04:20:00,71.1,65.3,30.02,SSW,198,0.0,0.0,82,0.00,,---,0.00,VWS V14.01,2013-08-21 09:20:00,
2013-08-21 04:23:00,70.9,65.5,30.02,SSW,198,1.0,1.0,83,0.00,,---,0.00,VWS V14.01,2013-08-21 09:23:00,
2013-08-21 04:28:00,70.7,65.3,30.02,SSW,198,0.0,0.0,83,0.00,,---,0.00,VWS V14.01,2013-08-21 09:28:00,
2013-08-21 04:30:00,70.7,65.3,30.02,SSW,198,0.0,1.0,83,0.00,,---,0.00,VWS V14.01,2013-08-21 09:30:00,
2013-08-21 04:33:00,70.5,65.1,30.02,SSW,198,0.0,0.0,83,0.00,,---,0.00,VWS V14.01,2013-08-21 09:33:00,
2013-08-21 04:38:00,70.3,65.2,30.03,SSW,198,0.0,0.0,84,0.00,,---,0.00,VWS V14.01,2013-08-21 09:38:00,
2013-08-21 04:40:00,70.4,65.3,30.03,SSW,198,0.0,0.0,84,0.00,,---,0.00,VWS V14.01,2013-08-21 09:40:00,
2013-08-21 04:43:00,70.2,65.1,30.03,SSW,198,0.0,0.0,84,0.00,,---,0.00,VWS V14.01,2013-08-21 09:43:00,
2013-08-21 04:48:00,70.0,64.9,30.02,SSW,198,0.0,0.0,84,0.00,,---,0.00,VWS V14.01,2013-08-21 09:48:00,
2013-08-21 04:50:00,70.1,65.1,30.02,SSW,198,0.0,0.0,84,0.00,,---,0.00,VWS V14.01,2013-08-21 09:50:00,
2013-08-21 04:53:00,69.8,64.8,30.02,SSW,198,0.0,0.0,84,0.00,,---,0.00,VWS V14.01,2013-08-21 09:53:00,
2013-08-21 04:58:00,69.7,65.0,30.02,SSW,198,0.0,0.0,85,0.00,,---,0.00,VWS V14.01,2013-08-21 09:58:00,
2013-08-21 05:00:00,69.7,65.0,30.03,SSW,198,0.0,0.0,85,0.00,,---,0.00,VWS V14.01,2013-08-21 10:00:00,
2013-08-21 05:03:00,69.5,64.8,30.02,SSW,198,0.0,0.0,85,0.00,,---,0.00,VWS V14.01,2013-08-21 10:03:00,
2013-08-21 05:08:00,69.4,65.0,30.02,SSW,198,0.0,0.0,86,0.00,,---,0.00,VWS V14.01,2013-08-21 10:08:00,
2013-08-21 05:10:00,69.4,64.7,30.02,SSW,198,0.0,0.0,85,0.00,,---,0.00,VWS V14.01,2013-08-21 10:10:00,
2013-08-21 05:13:00,69.2,64.8,30.02,SSW,198,0.0,0.0,86,0.00,,---,0.00,VWS V14.01,2013-08-21 10:13:00,
2013-08-21 05:19:00,69.1,64.7,30.02,SSW,198,0.0,0.0,86,0.00,,---,0.00,VWS V14.01,2013-08-21 10:19:00,
2013-08-21 05:20:00,69.1,64.7,30.02,SSW,198,0.0,0.0,86,0.00,,---,0.00,VWS V14.01,2013-08-21 10:20:00,
2013-08-21 05:24:00,69.0,64.6,30.03,SSW,198,0.0,0.0,86,0.00,,---,0.00,VWS V14.01,2013-08-21 10:24:00,
2013-08-21 05:29:00,68.8,64.8,30.03,SSW,198,0.0,0.0,87,0.00,,---,0.00,VWS V14.01,2013-08-21 10:29:00,
2013-08-21 05:30:00,68.9,64.9,30.03,SSW,198,0.0,0.0,87,0.00,,---,0.00,VWS V14.01,2013-08-21 10:30:00,
2013-08-21 05:34:00,68.7,64.7,30.03,SSW,198,0.0,0.0,87,0.00,,---,0.00,VWS V14.01,2013-08-21 10:34:00,
2013-08-21 05:39:00,68.6,64.6,30.03,SSW,198,0.0,0.0,87,0.00,,---,0.00,VWS V14.01,2013-08-21 10:39:00,
2013-08-21 05:40:00,68.7,64.7,30.03,SSW,198,0.0,0.0,87,0.00,,---,0.00,VWS V14.01,2013-08-21 10:40:00,
2013-08-21 05:44:00,68.5,64.5,30.03,SSW,198,0.0,0.0,87,0.00,,---,0.00,VWS V14.01,2013-08-21 10:44:00,
2013-08-21 05:49:00,68.5,64.8,30.03,SSW,198,0.0,0.0,88,0.00,,---,0.00,VWS V14.01,2013-08-21 10:49:00,
2013-08-21 05:50:00,68.5,64.5,30.03,SSW,198,0.0,0.0,87,0.00,,---,0.00,VWS V14.01,2013-08-21 10:50:00,
2013-08-21 05:54:00,68.4,64.7,30.03,SSW,198,0.0,0.0,88,0.00,,---,0.00,VWS V14.01,2013-08-21 10:54:00,
2013-08-21 05:59:00,68.3,64.6,30.03,SSW,198,0.0,0.0,88,0.00,,---,0.00,VWS V14.01,2013-08-21 10:59:00,
2013-08-21 06:00:00,68.3,64.6,30.03,SSW,198,0.0,0.0,88,0.00,,---,0.00,VWS V14.01,2013-08-21 11:00:00,
2013-08-21 06:04:00,68.2,64.5,30.03,SSW,198,0.0,0.0,88,0.00,,---,0.00,VWS V14.01,2013-08-21 11:04:00,
2013-08-21 06:09:00,68.1,64.4,30.03,SSW,198,0.0,0.0,88,0.00,,---,0.00,VWS V14.01,2013-08-21 11:09:00,
2013-08-21 06:10:00,68.1,64.4,30.03,SSW,198,0.0,0.0,88,0.00,,---,0.00,VWS V14.01,2013-08-21 11:10:00,
2013-08-21 06:14:00,67.9,64.2,30.03,SSW,198,0.0,0.0,88,0.00,,---,0.00,VWS V14.01,2013-08-21 11:14:00,
2013-08-21 06:19:00,67.9,64.2,30.04,SSW,198,0.0,0.0,88,0.00,,---,0.00,VWS V14.01,2013-08-21 11:19:00,
2013-08-21 06:20:00,67.9,64.2,30.04,SSW,198,0.0,0.0,88,0.00,,---,0.00,VWS V14.01,2013-08-21 11:20:00,
2013-08-21 06:24:00,67.8,64.1,30.04,SSW,198,0.0,0.0,88,0.00,,---,0.00,VWS V14.01,2013-08-21 11:24:00,
2013-08-21 06:29:00,67.8,64.1,30.04,SSW,198,0.0,0.0,88,0.00,,---,0.00,VWS V14.01,2013-08-21 11:29:00,
2013-08-21 06:30:00,67.8,64.1,30.04,SSW,198,0.0,0.0,88,0.00,,---,0.00,VWS V14.01,2013-08-21 11:30:00,
2013-08-21 06:34:00,67.7,64.0,30.04,SSW,198,0.0,0.0,88,0.00,,---,0.00,VWS V14.01,2013-08-21 11:34:00,
2013-08-21 06:39:00,67.7,64.0,30.04,SSW,198,0.0,0.0,88,0.00,,---,0.00,VWS V14.01,2013-08-21 11:39:00,
2013-08-21 06:40:00,67.7,64.0,30.04,SSW,198,0.0,0.0,88,0.00,,---,0.00,VWS V14.01,2013-08-21 11:40:00,
2013-08-21 06:44:00,67.6,64.2,30.04,SSW,198,0.0,0.0,89,0.00,,---,0.00,VWS V14.01,2013-08-21 11:44:00,
2013-08-21 06:49:00,67.6,64.2,30.05,SSW,198,0.0,0.0,89,0.00,,---,0.00,VWS V14.01,2013-08-21 11:49:00,
2013-08-21 06:50:00,67.6,64.2,30.05,SSW,198,0.0,0.0,89,0.00,,---,0.00,VWS V14.01,2013-08-21 11:50:00,
2013-08-21 06:54:00,67.6,64.2,30.05,SSW,198,0.0,0.0,89,0.00,,---,0.00,VWS V14.01,2013-08-21 11:54:00,
2013-08-21 06:59:00,67.6,64.2,30.05,SSW,198,0.0,0.0,89,0.00,,---,0.00,VWS V14.01,2013-08-21 11:59:00,
2013-08-21 07:00:00,67.6,63.9,30.05,SSW,198,0.0,0.0,88,0.00,,---,0.00,VWS V14.01,2013-08-21 12:00:00,
2013-08-21 07:04:00,67.6,64.2,30.05,SSW,198,0.0,0.0,89,0.00,,---,0.00,VWS V14.01,2013-08-21 12:04:00,
2013-08-21 07:09:00,67.6,64.2,30.05,SSW,198,0.0,0.0,89,0.00,,---,0.00,VWS V14.01,2013-08-21 12:09:00,
2013-08-21 07:10:00,67.6,64.2,30.05,SSW,198,0.0,0.0,89,0.00,,---,0.00,VWS V14.01,2013-08-21 12:10:00,
2013-08-21 07:14:00,67.7,64.3,30.06,SSW,198,0.0,0.0,89,0.00,,---,0.00,VWS V14.01,2013-08-21 12:14:00,
2013-08-21 07:19:00,67.8,64.4,30.06,SSW,198,0.0,0.0,89,0.00,,---,0.00,VWS V14.01,2013-08-21 12:19:00,
2013-08-21 07:20:00,67.7,64.3,30.06,SSW,198,0.0,0.0,89,0.00,,---,0.00,VWS V14.01,2013-08-21 12:20:00,
2013-08-21 07:24:00,67.9,64.5,30.06,SSW,198,0.0,0.0,89,0.00,,---,0.00,VWS V14.01,2013-08-21 12:24:00,
2013-08-21 07:29:00,68.1,64.7,30.06,SSW,198,0.0,0.0,89,0.00,,---,0.00,VWS V14.01,2013-08-21 12:29:00,
2013-08-21 07:30:00,68.0,64.3,30.06,SSW,198,0.0,0.0,88,0.00,,---,0.00,VWS V14.01,2013-08-21 12:30:00,
2013-08-21 07:34:00,68.3,64.6,30.06,SSW,198,0.0,1.0,88,0.00,,---,0.00,VWS V14.01,2013-08-21 12:34:00,
2013-08-21 07:39:00,68.6,64.9,30.06,SSW,198,0.0,2.0,88,0.00,,---,0.00,VWS V14.01,2013-08-21 12:39:00,
2013-08-21 07:44:00,68.9,64.9,30.06,SSW,198,0.0,2.0,87,0.00,,---,0.00,VWS V14.01,2013-08-21 12:44:00,
2013-08-21 07:49:00,69.3,65.3,30.06,SSW,198,0.0,0.0,87,0.00,,---,0.00,VWS V14.01,2013-08-21 12:49:00,
2013-08-21 07:50:00,69.1,65.1,30.06,SSW,198,0.0,2.0,87,0.00,,---,0.00,VWS V14.01,2013-08-21 12:50:00,
2013-08-21 07:54:00,69.7,65.3,30.06,SSW,202,2.0,2.0,86,0.00,,---,0.00,VWS V14.01,2013-08-21 12:54:00,
2013-08-21 07:59:00,70.2,65.5,30.06,SSW,199,0.0,2.0,85,0.00,,---,0.00,VWS V14.01,2013-08-21 12:59:00,
2013-08-21 08:00:00,69.9,65.2,30.06,SSW,199,0.0,3.0,85,0.00,,---,0.00,VWS V14.01,2013-08-21 13:00:00,
2013-08-21 08:04:00,70.8,66.1,30.06,SSW,199,0.0,2.0,85,0.00,,---,0.00,VWS V14.01,2013-08-21 13:04:00,
2013-08-21 08:09:00,71.4,66.0,30.06,SSW,199,0.0,0.0,83,0.00,,---,0.00,VWS V14.01,2013-08-21 13:09:00,
2013-08-21 08:10:00,71.0,65.9,30.06,SSW,199,0.0,2.0,84,0.00,,---,0.00,VWS V14.01,2013-08-21 13:10:00,
2013-08-21 08:14:00,72.0,66.2,30.07,SSW,202,2.0,2.0,82,0.00,,---,0.00,VWS V14.01,2013-08-21 13:14:00,
2013-08-21 08:20:00,72.6,66.4,30.07,SSW,203,0.0,2.0,81,0.00,,---,0.00,VWS V14.01,2013-08-21 13:20:00,
2013-08-21 08:25:00,73.3,66.4,30.07,SSW,203,0.0,3.0,79,0.00,,---,0.00,VWS V14.01,2013-08-21 13:25:00,
2013-08-21 08:30:00,74.1,66.8,30.07,SSW,198,0.0,1.0,78,0.00,,---,0.00,VWS V14.01,2013-08-21 13:30:00,
2013-08-21 08:35:00,74.8,67.1,30.07,SSW,200,0.0,1.0,77,0.00,,---,0.00,VWS V14.01,2013-08-21 13:35:00,
2013-08-21 08:40:00,75.5,67.4,30.07,SSW,200,0.0,1.0,76,0.00,,---,0.00,VWS V14.01,2013-08-21 13:40:00,
2013-08-21 08:45:00,76.2,67.3,30.07,SSW,200,0.0,2.0,74,0.00,,---,0.00,VWS V14.01,2013-08-21 13:45:00,
2013-08-21 08:50:00,76.8,67.1,30.07,SSW,206,3.0,6.0,72,0.00,,---,0.00,VWS V14.01,2013-08-21 13:50:00,
2013-08-21 08:55:00,77.2,67.1,30.07,SSW,205,0.0,6.0,71,0.00,,---,0.00,VWS V14.01,2013-08-21 13:55:00,
2013-08-21 09:00:00,77.5,66.9,30.07,SSW,198,3.0,3.0,70,0.00,,---,0.00,VWS V14.01,2013-08-21 14:00:00,
2013-08-21 09:05:00,77.6,67.5,30.07,SW,230,0.0,5.0,71,0.00,,---,0.00,VWS V14.01,2013-08-21 14:05:00,
2013-08-21 09:10:00,77.9,67.3,30.07,SW,221,0.0,5.0,70,0.00,,---,0.00,VWS V14.01,2013-08-21 14:10:00,
2013-08-21 09:15:00,78.2,67.6,30.07,SSW,212,0.0,5.0,70,0.00,,---,0.00,VWS V14.01,2013-08-21 14:15:00,
2013-08-21 09:20:00,78.6,67.6,30.07,South,186,2.0,5.0,69,0.00,,---,0.00,VWS V14.01,2013-08-21 14:20:00,
2013-08-21 09:25:00,79.0,68.0,30.07,SSW,192,4.0,5.0,69,0.00,,---,0.00,VWS V14.01,2013-08-21 14:25:00,
2013-08-21 09:30:00,79.3,67.8,30.07,ENE,69,0.0,4.0,68,0.00,,---,0.00,VWS V14.01,2013-08-21 14:30:00,
2013-08-21 09:35:00,79.6,68.1,30.07,SSW,205,1.0,5.0,68,0.00,,---,0.00,VWS V14.01,2013-08-21 14:35:00,
2013-08-21 09:40:00,79.9,68.0,30.07,SSW,193,1.0,7.0,67,0.00,,---,0.00,VWS V14.01,2013-08-21 14:40:00,
2013-08-21 09:45:00,80.3,67.9,30.07,SW,229,3.0,7.0,66,0.00,,---,0.00,VWS V14.01,2013-08-21 14:45:00,
2013-08-21 09:50:00,80.6,68.2,30.07,SSW,209,5.0,5.0,66,0.00,,---,0.00,VWS V14.01,2013-08-21 14:50:00,
2013-08-21 09:55:00,81.0,68.6,30.07,SW,217,2.0,5.0,66,0.00,,---,0.00,VWS V14.01,2013-08-21 14:55:00,
2013-08-21 10:00:00,81.5,69.1,30.07,SSW,200,5.0,6.0,66,0.00,,---,0.00,VWS V14.01,2013-08-21 15:00:00,
2013-08-21 10:05:00,81.9,69.4,30.07,SSW,208,2.0,8.0,66,0.00,,---,0.00,VWS V14.01,2013-08-21 15:05:00,
2013-08-21 10:10:00,82.5,69.6,30.07,SSW,207,0.0,1.0,65,0.00,,---,0.00,VWS V14.01,2013-08-21 15:10:00,
2013-08-21 10:15:00,83.0,70.0,30.08,SSE,166,1.0,2.0,65,0.00,,---,0.00,VWS V14.01,2013-08-21 15:15:00,
2013-08-21 10:20:00,83.5,70.1,30.08,SSW,195,1.0,2.0,64,0.00,,---,0.00,VWS V14.01,2013-08-21 15:20:00,
2013-08-21 10:25:00,83.9,70.0,30.08,South,184,0.0,3.0,63,0.00,,---,0.00,VWS V14.01,2013-08-21 15:25:00,
2013-08-21 10:30:00,84.2,70.2,30.08,SSW,207,1.0,3.0,63,0.00,,---,0.00,VWS V14.01,2013-08-21 15:30:00,
2013-08-21 10:35:00,84.6,70.6,30.07,South,182,1.0,3.0,63,0.00,,---,0.00,VWS V14.01,2013-08-21 15:35:00,
2013-08-21 10:40:00,85.1,70.6,30.07,SW,218,0.0,6.0,62,0.00,,---,0.00,VWS V14.01,2013-08-21 15:40:00,
2013-08-21 10:45:00,85.7,70.7,30.07,SSW,213,2.0,6.0,61,0.00,,---,0.00,VWS V14.01,2013-08-21 15:45:00,
2013-08-21 10:50:00,86.0,71.0,30.07,WSW,240,0.0,4.0,61,0.00,,---,0.00,VWS V14.01,2013-08-21 15:50:00,
2013-08-21 10:55:00,86.1,71.1,30.07,SSW,205,4.0,5.0,61,0.00,,---,0.00,VWS V14.01,2013-08-21 15:55:00,
2013-08-21 11:00:00,86.4,71.4,30.07,SSW,206,2.0,5.0,61,0.00,,---,0.00,VWS V14.01,2013-08-21 16:00:00,
2013-08-21 11:05:00,86.6,71.6,30.07,East,88,0.0,5.0,61,0.00,,---,0.00,VWS V14.01,2013-08-21 16:05:00,
2013-08-21 11:10:00,86.9,70.9,30.06,SSW,209,3.0,6.0,59,0.00,,---,0.00,VWS V14.01,2013-08-21 16:10:00,
2013-08-21 11:16:00,86.9,71.3,30.07,East,88,0.0,6.0,60,0.00,,---,0.00,VWS V14.01,2013-08-21 16:16:00,
2013-08-21 11:20:00,87.0,71.4,30.07,South,178,0.0,6.0,60,0.00,,---,0.00,VWS V14.01,2013-08-21 16:20:00,
2013-08-21 11:21:00,87.2,71.6,30.07,South,173,0.0,2.0,60,0.00,,---,0.00,VWS V14.01,2013-08-21 16:21:00,
2013-08-21 11:26:00,87.6,71.5,30.07,SW,214,1.0,4.0,59,0.00,,---,0.00,VWS V14.01,2013-08-21 16:26:00,
2013-08-21 11:30:00,87.7,71.6,30.07,SW,225,0.0,4.0,59,0.00,,---,0.00,VWS V14.01,2013-08-21 16:30:00,
2013-08-21 11:31:00,87.9,71.8,30.07,SW,219,4.0,6.0,59,0.00,,---,0.00,VWS V14.01,2013-08-21 16:31:00,
2013-08-21 11:36:00,88.3,72.2,30.07,SW,229,1.0,6.0,59,0.00,,---,0.00,VWS V14.01,2013-08-21 16:36:00,
2013-08-21 11:40:00,88.4,71.8,30.07,SW,214,1.0,6.0,58,0.00,,---,0.00,VWS V14.01,2013-08-21 16:40:00,
2013-08-21 11:41:00,88.7,72.0,30.07,South,187,0.0,5.0,58,0.00,,---,0.00,VWS V14.01,2013-08-21 16:41:00,
2013-08-21 11:46:00,88.9,71.2,30.07,SSW,211,5.0,6.0,56,0.00,,---,0.00,VWS V14.01,2013-08-21 16:46:00,
2013-08-21 11:50:00,88.9,71.2,30.06,SSW,213,1.0,6.0,56,0.00,,---,0.00,VWS V14.01,2013-08-21 16:50:00,
2013-08-21 11:51:00,89.1,71.9,30.06,SW,215,0.0,5.0,57,0.00,,---,0.00,VWS V14.01,2013-08-21 16:51:00,
2013-08-21 11:56:00,89.4,72.2,30.06,SW,229,2.0,6.0,57,0.00,,---,0.00,VWS V14.01,2013-08-21 16:56:00,
2013-08-21 12:00:00,89.5,72.3,30.06,South,179,4.0,6.0,57,0.00,,---,0.00,VWS V14.01,2013-08-21 17:00:00,
2013-08-21 12:01:00,89.8,72.0,30.06,SW,219,0.0,5.0,56,0.00,,---,0.00,VWS V14.01,2013-08-21 17:01:00,
2013-08-21 12:06:00,90.0,72.7,30.06,SSE,158,0.0,5.0,57,0.00,,---,0.00,VWS V14.01,2013-08-21 17:06:00,
2013-08-21 12:10:00,90.1,71.8,30.06,ESE,114,1.0,5.0,55,0.00,,---,0.00,VWS V14.01,2013-08-21 17:10:00,
2013-08-21 12:11:00,90.2,71.9,30.06,SW,225,0.0,4.0,55,0.00,,---,0.00,VWS V14.01,2013-08-21 17:11:00,
2013-08-21 12:16:00,90.4,72.6,30.06,WSW,240,1.0,4.0,56,0.00,,---,0.00,VWS V14.01,2013-08-21 17:16:00,
2013-08-21 12:20:00,90.4,72.1,30.06,SSE,166,1.0,4.0,55,0.00,,---,0.00,VWS V14.01,2013-08-21 17:20:00,
2013-08-21 12:21:00,90.4,71.5,30.06,East,96,1.0,4.0,54,0.00,,---,0.00,VWS V14.01,2013-08-21 17:21:00,
2013-08-21 12:26:00,90.5,72.1,30.06,East,98,0.0,5.0,55,0.00,,---,0.00,VWS V14.01,2013-08-21 17:26:00,
2013-08-21 12:30:00,90.6,72.8,30.06,East,98,0.0,5.0,56,0.00,,---,0.00,VWS V14.01,2013-08-21 17:30:00,
2013-08-21 12:31:00,90.8,72.9,30.06,SW,218,0.0,4.0,56,0.00,,---,0.00,VWS V14.01,2013-08-21 17:31:00,
2013-08-21 12:36:00,91.0,72.1,30.05,SSW,213,1.0,5.0,54,0.00,,---,0.00,VWS V14.01,2013-08-21 17:36:00,
2013-08-21 12:40:00,91.1,72.2,30.05,SW,221,2.0,5.0,54,0.00,,---,0.00,VWS V14.01,2013-08-21 17:40:00,
2013-08-21 12:41:00,91.3,72.3,30.05,NNW,338,1.0,6.0,54,0.00,,---,0.00,VWS V14.01,2013-08-21 17:41:00,
2013-08-21 12:46:00,91.4,72.4,30.05,South,181,2.0,6.0,54,0.00,,---,0.00,VWS V14.01,2013-08-21 17:46:00,
2013-08-21 12:50:00,91.4,72.4,30.05,South,178,0.0,6.0,54,0.00,,---,0.00,VWS V14.01,2013-08-21 17:50:00,
2013-08-21 12:51:00,91.6,72.6,30.05,WSW,246,0.0,4.0,54,0.00,,---,0.00,VWS V14.01,2013-08-21 17:51:00,
2013-08-21 12:56:00,91.8,72.8,30.05,WSW,254,0.0,4.0,54,0.00,,---,0.00,VWS V14.01,2013-08-21 17:56:00,
2013-08-21 13:00:00,91.8,72.8,30.05,WSW,254,1.0,4.0,54,0.00,,---,0.00,VWS V14.01,2013-08-21 18:00:00,
2013-08-21 13:01:00,91.9,72.3,30.05,SSW,203,0.0,4.0,53,0.00,,---,0.00,VWS V14.01,2013-08-21 18:01:00,
2013-08-21 13:06:00,92.1,72.5,30.05,SW,218,4.0,5.0,53,0.00,,---,0.00,VWS V14.01,2013-08-21 18:06:00,
2013-08-21 13:10:00,92.1,72.0,30.05,South,170,2.0,5.0,52,0.00,,---,0.00,VWS V14.01,2013-08-21 18:10:00,
2013-08-21 13:11:00,92.4,72.2,30.05,South,173,0.0,5.0,52,0.00,,---,0.00,VWS V14.01,2013-08-21 18:11:00,
2013-08-21 13:16:00,92.6,72.4,30.05,SE,146,0.0,5.0,52,0.00,,---,0.00,VWS V14.01,2013-08-21 18:16:00,
2013-08-21 13:20:00,92.6,72.4,30.05,SE,146,0.0,5.0,52,0.00,,---,0.00,VWS V14.01,2013-08-21 18:20:00,
2013-08-21 13:21:00,92.8,72.6,30.05,SSE,153,5.0,5.0,52,0.00,,---,0.00,VWS V14.01,2013-08-21 18:21:00,
2013-08-21 13:26:00,93.1,72.3,30.04,SSW,192,2.0,10.0,51,0.00,,---,0.00,VWS V14.01,2013-08-21 18:26:00,
2013-08-21 13:30:00,93.2,72.4,30.04,SSW,192,0.0,10.0,51,0.00,,---,0.00,VWS V14.01,2013-08-21 18:30:00,
2013-08-21 13:31:00,93.5,72.7,30.04,WSW,244,0.0,3.0,51,0.00,,---,0.00,VWS V14.01,2013-08-21 18:31:00,
2013-08-21 13:36:00,93.7,72.8,30.04,WSW,238,0.0,9.0,51,0.00,,---,0.00,VWS V14.01,2013-08-21 18:36:00,
2013-08-21 13:40:00,93.7,72.8,30.04,WSW,238,0.0,9.0,51,0.00,,---,0.00,VWS V14.01,2013-08-21 18:40:00,
2013-08-21 13:41:00,93.9,71.8,30.04,SE,134,0.0,3.0,49,0.00,,---,0.00,VWS V14.01,2013-08-21 18:41:00,
2013-08-21 13:46:00,94.0,72.5,30.04,WSW,244,4.0,5.0,50,0.00,,---,0.00,VWS V14.01,2013-08-21 18:46:00,
2013-08-21 13:50:00,94.0,72.5,30.04,SSW,212,2.0,5.0,50,0.00,,---,0.00,VWS V14.01,2013-08-21 18:50:00,
2013-08-21 13:51:00,94.0,72.5,30.04,SSW,213,2.0,4.0,50,0.00,,---,0.00,VWS V14.01,2013-08-21 18:51:00,
2013-08-21 13:56:00,94.2,72.7,30.04,SSW,206,2.0,8.0,50,0.00,,---,0.00,VWS V14.01,2013-08-21 18:56:00,
2013-08-21 14:00:00,94.2,72.7,30.04,WSW,257,2.0,8.0,50,0.00,,---,0.00,VWS V14.01,2013-08-21 19:00:00,
2013-08-21 14:01:00,94.2,72.1,30.04,SSW,209,1.0,4.0,49,0.00,,---,0.00,VWS V14.01,2013-08-21 19:01:00,
2013-08-21 14:06:00,94.4,72.3,30.03,SW,217,3.0,4.0,49,0.00,,---,0.00,VWS V14.01,2013-08-21 19:06:00,
2013-08-21 14:10:00,94.4,72.3,30.03,SW,217,2.0,4.0,49,0.00,,---,0.00,VWS V14.01,2013-08-21 19:10:00,
2013-08-21 14:11:00,94.5,73.6,30.03,SSW,206,0.0,4.0,51,0.00,,---,0.00,VWS V14.01,2013-08-21 19:11:00,
2013-08-21 14:17:00,94.6,73.7,30.03,ESE,111,2.0,4.0,51,0.00,,---,0.00,VWS V14.01,2013-08-21 19:17:00,
2013-08-21 14:20:00,94.6,73.7,30.03,NE,35,2.0,4.0,51,0.00,,---,0.00,VWS V14.01,2013-08-21 19:20:00,
2013-08-21 14:22:00,94.7,73.8,30.03,NE,35,0.0,2.0,51,0.00,,---,0.00,VWS V14.01,2013-08-21 19:22:00,
2013-08-21 14:27:00,94.7,72.0,30.03,SW,225,0.0,3.0,48,0.00,,---,0.00,VWS V14.01,2013-08-21 19:27:00,
2013-08-21 14:32:00,94.8,72.7,30.03,South,176,0.0,5.0,49,0.00,,---,0.00,VWS V14.01,2013-08-21 19:32:00,
2013-08-21 14:37:00,95.0,73.5,30.03,SSW,199,1.0,6.0,50,0.00,,---,0.00,VWS V14.01,2013-08-21 19:37:00,
2013-08-21 14:40:00,95.0,73.5,30.03,SSW,199,1.0,6.0,50,0.00,,---,0.00,VWS V14.01,2013-08-21 19:40:00,
2013-08-21 14:42:00,95.2,73.6,30.03,SSW,197,1.0,2.0,50,0.00,,---,0.00,VWS V14.01,2013-08-21 19:42:00,
2013-08-21 14:47:00,95.4,73.2,30.03,South,173,0.0,4.0,49,0.00,,---,0.00,VWS V14.01,2013-08-21 19:47:00,
2013-08-21 14:50:00,95.4,73.2,30.03,South,173,0.0,4.0,49,0.00,,---,0.00,VWS V14.01,2013-08-21 19:50:00,
2013-08-21 14:52:00,95.2,72.4,30.03,SW,219,2.0,6.0,48,0.00,,---,0.00,VWS V14.01,2013-08-21 19:52:00,
2013-08-21 14:57:00,95.3,73.7,30.03,SW,215,3.0,6.0,50,0.00,,---,0.00,VWS V14.01,2013-08-21 19:57:00,
2013-08-21 15:00:00,95.3,73.7,30.03,SW,215,3.0,6.0,50,0.00,,---,0.00,VWS V14.01,2013-08-21 20:00:00,
2013-08-21 15:02:00,95.2,72.4,30.03,SSW,210,0.0,5.0,48,0.00,,---,0.00,VWS V14.01,2013-08-21 20:02:00,
2013-08-21 15:07:00,95.2,73.6,30.03,SW,221,0.0,0.0,50,0.00,,---,0.00,VWS V14.01,2013-08-21 20:07:00,
2013-08-21 15:10:00,95.2,73.0,30.03,SW,223,0.0,7.0,49,0.00,,---,0.00,VWS V14.01,2013-08-21 20:10:00,
2013-08-21 15:12:00,95.2,73.6,30.03,ESE,112,0.0,3.0,50,0.00,,---,0.00,VWS V14.01,2013-08-21 20:12:00,
2013-08-21 15:17:00,95.3,73.1,30.02,WSW,257,0.0,0.0,49,0.00,,---,0.00,VWS V14.01,2013-08-21 20:17:00,
2013-08-21 15:22:00,95.5,73.3,30.03,NNE,15,1.0,3.0,49,0.00,,---,0.00,VWS V14.01,2013-08-21 20:22:00,
2013-08-21 15:27:00,95.5,73.3,30.03,SSW,200,1.0,2.0,49,0.00,,---,0.00,VWS V14.01,2013-08-21 20:27:00,
2013-08-21 15:30:00,95.5,73.3,30.03,SSW,198,2.0,5.0,49,0.00,,---,0.00,VWS V14.01,2013-08-21 20:30:00,
2013-08-21 15:32:00,95.6,73.4,30.03,SW,226,5.0,8.0,49,0.00,,---,0.00,VWS V14.01,2013-08-21 20:32:00,
2013-08-21 15:37:00,95.5,72.1,30.03,SW,227,1.0,3.0,47,0.00,,---,0.00,VWS V14.01,2013-08-21 20:37:00,
2013-08-21 15:40:00,95.6,72.2,30.02,SSW,205,1.0,8.0,47,0.00,,---,0.00,VWS V14.01,2013-08-21 20:40:00,
2013-08-21 15:42:00,95.3,72.5,30.02,SW,227,1.0,3.0,48,0.00,,---,0.00,VWS V14.01,2013-08-21 20:42:00,
2013-08-21 15:47:00,95.1,72.9,30.02,WSW,243,2.0,2.0,49,0.00,,---,0.00,VWS V14.01,2013-08-21 20:47:00,
2013-08-21 15:50:00,95.2,73.0,30.02,WSW,243,0.0,4.0,49,0.00,,---,0.00,VWS V14.01,2013-08-21 20:50:00,
2013-08-21 15:52:00,95.0,72.9,30.02,SSW,201,2.0,6.0,49,0.00,,---,0.00,VWS V14.01,2013-08-21 20:52:00,
2013-08-21 15:57:00,95.0,74.1,30.02,WSW,243,1.0,1.0,51,0.00,,---,0.00,VWS V14.01,2013-08-21 20:57:00,
2013-08-21 16:00:00,95.0,74.1,30.02,SSW,198,0.0,6.0,51,0.00,,---,0.00,VWS V14.01,2013-08-21 21:00:00,
2013-08-21 16:02:00,94.9,73.4,30.02,NNW,333,0.0,4.0,50,0.00,,---,0.00,VWS V14.01,2013-08-21 21:02:00,
2013-08-21 16:07:00,94.6,72.5,30.02,WNW,288,0.0,1.0,49,0.00,,---,0.00,VWS V14.01,2013-08-21 21:07:00,
2013-08-21 16:10:00,94.6,72.5,30.01,WSW,253,1.0,4.0,49,0.00,,---,0.00,VWS V14.01,2013-08-21 21:10:00,
2013-08-21 16:12:00,94.2,72.7,30.01,SSW,213,0.0,2.0,50,0.00,,---,0.00,VWS V14.01,2013-08-21 21:12:00,
2013-08-21 16:17:00,93.7,72.8,30.01,WSW,246,0.0,1.0,51,0.00,,---,0.00,VWS V14.01,2013-08-21 21:17:00,
2013-08-21 16:20:00,93.8,72.9,30.02,WSW,246,0.0,4.0,51,0.00,,---,0.00,VWS V14.01,2013-08-21 21:20:00,
2013-08-21 16:22:00,93.3,72.5,30.01,SE,130,0.0,3.0,51,0.00,,---,0.00,VWS V14.01,2013-08-21 21:22:00,
2013-08-21 16:27:00,92.9,72.1,30.01,ENE,76,0.0,0.0,51,0.00,,---,0.00,VWS V14.01,2013-08-21 21:27:00,
2013-08-21 16:30:00,93.0,72.2,30.01,ENE,76,0.0,3.0,51,0.00,,---,0.00,VWS V14.01,2013-08-21 21:30:00,
2013-08-21 16:32:00,92.6,73.0,30.01,East,101,0.0,1.0,53,0.00,,---,0.00,VWS V14.01,2013-08-21 21:32:00,
2013-08-21 16:37:00,92.4,72.8,30.01,SW,234,1.0,2.0,53,0.00,,---,0.00,VWS V14.01,2013-08-21 21:37:00,
2013-08-21 16:40:00,92.4,72.8,30.01,SSW,195,0.0,1.0,53,0.00,,---,0.00,VWS V14.01,2013-08-21 21:40:00,
2013-08-21 16:42:00,92.0,71.9,30.01,ENE,75,0.0,4.0,52,0.00,,---,0.00,VWS V14.01,2013-08-21 21:42:00,
2013-08-21 16:47:00,91.6,72.1,30.01,WSW,245,2.0,5.0,53,0.00,,---,0.00,VWS V14.01,2013-08-21 21:47:00,
2013-08-21 16:50:00,91.7,71.6,30.01,West,265,0.0,4.0,52,0.00,,---,0.00,VWS V14.01,2013-08-21 21:50:00,
2013-08-21 16:52:00,91.3,71.8,30.01,WSW,251,0.0,6.0,53,0.00,,---,0.00,VWS V14.01,2013-08-21 21:52:00,
2013-08-21 16:57:00,91.1,72.2,30.01,West,262,2.0,3.0,54,0.00,,---,0.00,VWS V14.01,2013-08-21 21:57:00,
2013-08-21 17:00:00,91.1,72.2,30.01,West,265,1.0,6.0,54,0.00,,---,0.00,VWS V14.01,2013-08-21 22:00:00,
2013-08-21 17:02:00,91.0,72.1,30.01,SW,235,4.0,4.0,54,0.00,,---,0.00,VWS V14.01,2013-08-21 22:02:00,
2013-08-21 17:08:00,90.9,72.0,30.01,SSW,207,2.0,2.0,54,0.00,,---,0.00,VWS V14.01,2013-08-21 22:08:00,
2013-08-21 17:10:00,90.9,72.0,30.01,SSW,207,1.0,4.0,54,0.00,,---,0.00,VWS V14.01,2013-08-21 22:10:00,
2013-08-21 17:13:00,90.8,71.9,30.01,WSW,242,0.0,3.0,54,0.00,,---,0.00,VWS V14.01,2013-08-21 22:13:00,
2013-08-21 17:18:00,90.7,72.3,30.00,WSW,241,0.0,0.0,55,0.00,,---,0.00,VWS V14.01,2013-08-21 22:18:00,
2013-08-21 17:23:00,90.6,72.2,30.00,SW,230,1.0,3.0,55,0.00,,---,0.00,VWS V14.01,2013-08-21 22:23:00,
2013-08-21 17:28:00,90.5,72.1,30.00,SW,232,0.0,1.0,55,0.00,,---,0.00,VWS V14.01,2013-08-21 22:28:00,
2013-08-21 17:30:00,90.6,72.2,30.00,SW,232,1.0,3.0,55,0.00,,---,0.00,VWS V14.01,2013-08-21 22:30:00,
2013-08-21 17:33:00,90.5,72.7,30.00,SW,232,0.0,1.0,56,0.00,,---,0.00,VWS V14.01,2013-08-21 22:33:00,
2013-08-21 17:38:00,90.5,72.7,30.00,SSW,211,1.0,1.0,56,0.00,,---,0.00,VWS V14.01,2013-08-21 22:38:00,
2013-08-21 17:40:00,90.5,73.2,30.00,SSW,211,0.0,1.0,57,0.00,,---,0.00,VWS V14.01,2013-08-21 22:40:00,
2013-08-21 17:43:00,90.4,73.1,30.00,ESE,119,0.0,2.0,57,0.00,,---,0.00,VWS V14.01,2013-08-21 22:43:00,
2013-08-21 17:48:00,90.3,73.0,30.00,SW,228,2.0,2.0,57,0.00,,---,0.00,VWS V14.01,2013-08-21 22:48:00,
2013-08-21 17:53:00,90.2,72.9,30.00,ESE,107,0.0,2.0,57,0.00,,---,0.00,VWS V14.01,2013-08-21 22:53:00,
2013-08-21 17:58:00,90.0,72.7,30.00,SW,217,3.0,5.0,57,0.00,,---,0.00,VWS V14.01,2013-08-21 22:58:00,
2013-08-21 18:00:00,90.1,72.8,30.00,SE,144,0.0,3.0,57,0.00,,---,0.00,VWS V14.01,2013-08-21 23:00:00,
2013-08-21 18:03:00,89.8,72.0,30.00,SSW,194,4.0,7.0,56,0.00,,---,0.00,VWS V14.01,2013-08-21 23:03:00,
2013-08-21 18:08:00,89.6,71.8,30.00,SW,221,1.0,3.0,56,0.00,,---,0.00,VWS V14.01,2013-08-21 23:08:00,
2013-08-21 18:10:00,89.7,71.9,30.00,SW,219,0.0,7.0,56,0.00,,---,0.00,VWS V14.01,2013-08-21 23:10:00,
2013-08-21 18:13:00,89.5,72.3,30.00,South,183,2.0,3.0,57,0.00,,---,0.00,VWS V14.01,2013-08-21 23:13:00,
2013-08-21 18:18:00,89.3,72.1,30.00,SW,217,0.0,0.0,57,0.00,,---,0.00,VWS V14.01,2013-08-21 23:18:00,
2013-08-21 18:20:00,89.3,72.1,30.00,SW,217,0.0,4.0,57,0.00,,---,0.00,VWS V14.01,2013-08-21 23:20:00,
2013-08-21 18:23:00,89.2,72.5,30.00,SW,217,1.0,2.0,58,0.00,,---,0.00,VWS V14.01,2013-08-21 23:23:00,
2013-08-21 18:28:00,89.1,72.4,30.00,South,178,0.0,1.0,58,0.00,,---,0.00,VWS V14.01,2013-08-21 23:28:00,
2013-08-21 18:30:00,89.1,72.4,30.00,South,178,1.0,5.0,58,0.00,,---,0.00,VWS V14.01,2013-08-21 23:30:00,
2013-08-21 18:33:00,88.9,72.2,30.00,South,180,0.0,1.0,58,0.00,,---,0.00,VWS V14.01,2013-08-21 23:33:00,
2013-08-21 18:38:00,88.7,72.0,30.00,West,275,1.0,1.0,58,0.00,,---,0.00,VWS V14.01,2013-08-21 23:38:00,
2013-08-21 18:40:00,88.7,72.0,30.00,West,275,1.0,2.0,58,0.00,,---,0.00,VWS V14.01,2013-08-21 23:40:00,
2013-08-21 18:43:00,88.5,72.3,30.00,West,275,0.0,1.0,59,0.00,,---,0.00,VWS V14.01,2013-08-21 23:43:00,
2013-08-21 18:48:00,88.3,72.2,30.00,NNE,19,0.0,0.0,59,0.00,,---,0.00,VWS V14.01,2013-08-21 23:48:00,
2013-08-21 18:50:00,88.4,72.3,30.00,NNE,19,0.0,2.0,59,0.00,,---,0.00,VWS V14.01,2013-08-21 23:50:00,
2013-08-21 18:53:00,88.1,72.0,30.00,South,184,0.0,3.0,59,0.00,,---,0.00,VWS V14.01,2013-08-21 23:53:00,
2013-08-21 18:58:00,87.9,71.8,29.99,SSE,157,0.0,1.0,59,0.00,,---,0.00,VWS V14.01,2013-08-21 23:58:00,
2013-08-21 19:00:00,88.0,71.9,29.99,South,178,0.0,3.0,59,0.00,,---,0.00,VWS V14.01,2013-08-22 00:00:00,
2013-08-21 19:03:00,87.8,72.2,29.99,SSW,194,0.0,4.0,60,0.00,,---,0.00,VWS V14.01,2013-08-22 00:03:00,
2013-08-21 19:08:00,87.6,72.0,29.99,South,188,1.0,1.0,60,0.00,,---,0.00,VWS V14.01,2013-08-22 00:08:00,
2013-08-21 19:10:00,87.6,72.0,29.99,South,188,0.0,4.0,60,0.00,,---,0.00,VWS V14.01,2013-08-22 00:10:00,
2013-08-21 19:13:00,87.4,71.8,29.99,SW,219,0.0,4.0,60,0.00,,---,0.00,VWS V14.01,2013-08-22 00:13:00,
2013-08-21 19:18:00,87.2,72.1,30.00,South,171,0.0,0.0,61,0.00,,---,0.00,VWS V14.01,2013-08-22 00:18:00,
2013-08-21 19:20:00,87.2,72.1,30.00,South,171,0.0,4.0,61,0.00,,---,0.00,VWS V14.01,2013-08-22 00:20:00,
2013-08-21 19:23:00,87.0,71.9,30.00,South,171,0.0,1.0,61,0.00,,---,0.00,VWS V14.01,2013-08-22 00:23:00,
2013-08-21 19:28:00,86.8,71.8,30.00,SW,216,0.0,1.0,61,0.00,,---,0.00,VWS V14.01,2013-08-22 00:28:00,
2013-08-21 19:30:00,86.9,71.8,30.00,SW,216,1.0,5.0,61,0.00,,---,0.00,VWS V14.01,2013-08-22 00:30:00,
2013-08-21 19:33:00,86.6,71.6,29.99,SW,215,0.0,1.0,61,0.00,,---,0.00,VWS V14.01,2013-08-22 00:33:00,
2013-08-21 19:38:00,86.4,71.8,29.99,SW,215,0.0,2.0,62,0.00,,---,0.00,VWS V14.01,2013-08-22 00:38:00,
2013-08-21 19:40:00,86.5,71.5,29.99,SW,215,0.0,1.0,61,0.00,,---,0.00,VWS V14.01,2013-08-22 00:40:00,
2013-08-21 19:43:00,86.1,71.6,29.99,SW,218,0.0,2.0,62,0.00,,---,0.00,VWS V14.01,2013-08-22 00:43:00,
2013-08-21 19:48:00,85.9,71.4,29.99,SW,218,0.0,3.0,62,0.00,,---,0.00,VWS V14.01,2013-08-22 00:48:00,
2013-08-21 19:50:00,86.0,71.5,29.99,SW,218,0.0,2.0,62,0.00,,---,0.00,VWS V14.01,2013-08-22 00:50:00,
2013-08-21 19:53:00,85.7,71.2,29.99,SW,218,0.0,3.0,62,0.00,,---,0.00,VWS V14.01,2013-08-22 00:53:00,
2013-08-21 19:59:00,85.4,71.4,29.99,SW,218,0.0,1.0,63,0.00,,---,0.00,VWS V14.01,2013-08-22 00:59:00,
2013-08-21 20:00:00,85.5,71.0,29.99,SW,218,0.0,3.0,62,0.00,,---,0.00,VWS V14.01,2013-08-22 01:00:00,
2013-08-21 20:04:00,85.1,71.1,29.99,SW,218,0.0,1.0,63,0.00,,---,0.00,VWS V14.01,2013-08-22 01:04:00,
2013-08-21 20:09:00,84.8,71.3,29.99,SW,218,0.0,0.0,64,0.00,,---,0.00,VWS V14.01,2013-08-22 01:09:00,
2013-08-21 20:10:00,85.0,71.0,29.99,SW,218,0.0,1.0,63,0.00,,---,0.00,VWS V14.01,2013-08-22 01:10:00,
2013-08-21 20:14:00,84.6,71.1,29.99,SW,219,0.0,0.0,64,0.00,,---,0.00,VWS V14.01,2013-08-22 01:14:00,
2013-08-21 20:19:00,84.3,71.3,30.00,SW,218,0.0,0.0,65,0.00,,---,0.00,VWS V14.01,2013-08-22 01:19:00,
2013-08-21 20:20:00,84.4,71.4,30.00,SW,218,0.0,0.0,65,0.00,,---,0.00,VWS V14.01,2013-08-22 01:20:00,
2013-08-21 20:24:00,84.0,71.0,30.00,SW,218,0.0,0.0,65,0.00,,---,0.00,VWS V14.01,2013-08-22 01:24:00,
2013-08-21 20:29:00,83.8,71.2,30.00,SW,218,0.0,0.0,66,0.00,,---,0.00,VWS V14.01,2013-08-22 01:29:00,
2013-08-21 20:30:00,83.9,71.3,30.00,SW,218,0.0,0.0,66,0.00,,---,0.00,VWS V14.01,2013-08-22 01:30:00,
2013-08-21 20:34:00,83.5,70.9,30.00,SW,218,0.0,0.0,66,0.00,,---,0.00,VWS V14.01,2013-08-22 01:34:00,
2013-08-21 20:39:00,83.2,71.1,30.00,SW,218,0.0,0.0,67,0.00,,---,0.00,VWS V14.01,2013-08-22 01:39:00,
2013-08-21 20:40:00,83.3,71.2,30.00,SW,218,0.0,0.0,67,0.00,,---,0.00,VWS V14.01,2013-08-22 01:40:00,
2013-08-21 20:44:00,82.9,71.3,30.00,SW,218,0.0,0.0,68,0.00,,---,0.00,VWS V14.01,2013-08-22 01:44:00,
2013-08-21 20:49:00,82.6,71.0,30.00,SW,218,0.0,0.0,68,0.00,,---,0.00,VWS V14.01,2013-08-22 01:49:00,
2013-08-21 20:50:00,82.7,71.1,30.00,SW,218,0.0,0.0,68,0.00,,---,0.00,VWS V14.01,2013-08-22 01:50:00,
2013-08-21 20:54:00,82.3,71.1,30.01,SW,218,0.0,0.0,69,0.00,,---,0.00,VWS V14.01,2013-08-22 01:54:00,
2013-08-21 20:59:00,82.0,70.8,30.01,SW,218,0.0,0.0,69,0.00,,---,0.00,VWS V14.01,2013-08-22 01:59:00,
2013-08-21 21:00:00,82.2,71.0,30.01,SW,218,0.0,0.0,69,0.00,,---,0.00,VWS V14.01,2013-08-22 02:00:00,
2013-08-21 21:04:00,81.8,71.1,30.01,SW,218,0.0,0.0,70,0.00,,---,0.00,VWS V14.01,2013-08-22 02:04:00,
2013-08-21 21:09:00,81.5,70.8,30.01,SW,218,0.0,0.0,70,0.00,,---,0.00,VWS V14.01,2013-08-22 02:09:00,
2013-08-21 21:10:00,81.6,70.9,30.01,SW,218,0.0,0.0,70,0.00,,---,0.00,VWS V14.01,2013-08-22 02:10:00,
2013-08-21 21:14:00,81.2,70.9,30.01,SW,218,0.0,0.0,71,0.00,,---,0.00,VWS V14.01,2013-08-22 02:14:00,
2013-08-21 21:19:00,81.0,71.1,30.01,SW,218,0.0,0.0,72,0.00,,---,0.00,VWS V14.01,2013-08-22 02:19:00,
2013-08-21 21:20:00,81.1,70.8,30.01,SW,218,0.0,0.0,71,0.00,,---,0.00,VWS V14.01,2013-08-22 02:20:00,
2013-08-21 21:24:00,80.7,70.8,30.01,SW,218,0.0,0.0,72,0.00,,---,0.00,VWS V14.01,2013-08-22 02:24:00,
2013-08-21 21:29:00,80.5,71.1,30.01,SW,218,0.0,0.0,73,0.00,,---,0.00,VWS V14.01,2013-08-22 02:29:00,
2013-08-21 21:34:00,80.2,70.8,30.01,SW,218,0.0,0.0,73,0.00,,---,0.00,VWS V14.01,2013-08-22 02:34:00,
2013-08-21 21:39:00,80.0,71.0,30.01,SW,218,0.0,0.0,74,0.00,,---,0.00,VWS V14.01,2013-08-22 02:39:00,
2013-08-21 21:40:00,80.1,70.7,30.01,SW,218,0.0,0.0,73,0.00,,---,0.00,VWS V14.01,2013-08-22 02:40:00,
2013-08-21 21:44:00,79.8,70.8,30.01,SW,218,0.0,0.0,74,0.00,,---,0.00,VWS V14.01,2013-08-22 02:44:00,
2013-08-21 21:49:00,79.6,71.0,30.01,SW,218,0.0,0.0,75,0.00,,---,0.00,VWS V14.01,2013-08-22 02:49:00,
2013-08-21 21:50:00,79.7,70.7,30.01,SW,218,0.0,0.0,74,0.00,,---,0.00,VWS V14.01,2013-08-22 02:50:00,
2013-08-21 21:54:00,79.3,70.7,30.01,SW,218,0.0,0.0,75,0.00,,---,0.00,VWS V14.01,2013-08-22 02:54:00,
2013-08-21 21:59:00,79.1,70.5,30.01,SW,218,0.0,0.0,75,0.00,,---,0.00,VWS V14.01,2013-08-22 02:59:00,
2013-08-21 22:00:00,79.2,70.6,30.01,SW,218,0.0,0.0,75,0.00,,---,0.00,VWS V14.01,2013-08-22 03:00:00,
2013-08-21 22:04:00,78.9,70.7,30.02,SW,218,0.0,0.0,76,0.00,,---,0.00,VWS V14.01,2013-08-22 03:04:00,
2013-08-21 22:09:00,78.7,70.5,30.01,SW,218,0.0,0.0,76,0.00,,---,0.00,VWS V14.01,2013-08-22 03:09:00,
2013-08-21 22:10:00,78.8,70.6,30.01,SW,218,0.0,0.0,76,0.00,,---,0.00,VWS V14.01,2013-08-22 03:10:00,
2013-08-21 22:14:00,78.5,70.7,30.01,SW,218,0.0,0.0,77,0.00,,---,0.00,VWS V14.01,2013-08-22 03:14:00,
2013-08-21 22:19:00,78.4,70.6,30.02,SW,218,0.0,0.0,77,0.00,,---,0.00,VWS V14.01,2013-08-22 03:19:00,
2013-08-21 22:20:00,78.5,70.7,30.01,SW,218,0.0,0.0,77,0.00,,---,0.00,VWS V14.01,2013-08-22 03:20:00,
2013-08-21 22:24:00,78.2,70.4,30.02,SW,218,0.0,0.0,77,0.00,,---,0.00,VWS V14.01,2013-08-22 03:24:00,
2013-08-21 22:29:00,78.0,70.2,30.02,SW,218,0.0,0.0,77,0.00,,---,0.00,VWS V14.01,2013-08-22 03:29:00,
2013-08-21 22:30:00,78.1,70.3,30.02,SW,218,0.0,0.0,77,0.00,,---,0.00,VWS V14.01,2013-08-22 03:30:00,
2013-08-21 22:34:00,77.8,70.4,30.02,SW,218,0.0,0.0,78,0.00,,---,0.00,VWS V14.01,2013-08-22 03:34:00,
2013-08-21 22:39:00,77.7,70.3,30.02,SW,218,0.0,0.0,78,0.00,,---,0.00,VWS V14.01,2013-08-22 03:39:00,
2013-08-21 22:40:00,77.8,70.0,30.02,SW,218,0.0,0.0,77,0.00,,---,0.00,VWS V14.01,2013-08-22 03:40:00,
2013-08-21 22:45:00,77.6,70.2,30.02,SW,218,0.0,0.0,78,0.00,,---,0.00,VWS V14.01,2013-08-22 03:45:00,
2013-08-21 22:50:00,77.5,70.1,30.03,SW,218,0.0,0.0,78,0.00,,---,0.00,VWS V14.01,2013-08-22 03:50:00,
2013-08-21 22:55:00,77.3,69.9,30.03,SW,218,0.0,0.0,78,0.00,,---,0.00,VWS V14.01,2013-08-22 03:55:00,
2013-08-21 23:00:00,77.2,69.8,30.02,SW,218,0.0,0.0,78,0.00,,---,0.00,VWS V14.01,2013-08-22 04:00:00,
2013-08-21 23:01:00,77.2,69.8,30.02,SW,218,0.0,0.0,78,0.00,,---,0.00,VWS V14.01,2013-08-22 04:01:00,
2013-08-21 23:06:00,77.1,69.7,30.02,SW,218,0.0,0.0,78,0.00,,---,0.00,VWS V14.01,2013-08-22 04:06:00,
2013-08-21 23:10:00,77.1,69.7,30.02,SW,218,0.0,0.0,78,0.00,,---,0.00,VWS V14.01,2013-08-22 04:10:00,
2013-08-21 23:11:00,77.0,70.0,30.02,SW,218,0.0,0.0,79,0.00,,---,0.00,VWS V14.01,2013-08-22 04:11:00,
2013-08-21 23:16:00,76.9,69.5,30.02,SW,218,0.0,0.0,78,0.00,,---,0.00,VWS V14.01,2013-08-22 04:16:00,
2013-08-21 23:20:00,76.9,69.5,30.02,SW,218,0.0,0.0,78,0.00,,---,0.00,VWS V14.01,2013-08-22 04:20:00,
2013-08-21 23:21:00,76.9,69.9,30.02,SW,218,0.0,0.0,79,0.00,,---,0.00,VWS V14.01,2013-08-22 04:21:00,
2013-08-21 23:26:00,76.8,69.8,30.02,SW,218,0.0,1.0,79,0.00,,---,0.00,VWS V14.01,2013-08-22 04:26:00,
2013-08-21 23:30:00,76.8,69.8,30.02,SW,218,0.0,1.0,79,0.00,,---,0.00,VWS V14.01,2013-08-22 04:30:00,
2013-08-21 23:31:00,76.7,69.7,30.02,SW,218,0.0,0.0,79,0.00,,---,0.00,VWS V14.01,2013-08-22 04:31:00,
2013-08-21 23:36:00,76.7,69.7,30.02,SW,217,0.0,1.0,79,0.00,,---,0.00,VWS V14.01,2013-08-22 04:36:00,
2013-08-21 23:40:00,76.6,69.6,30.02,SW,217,0.0,1.0,79,0.00,,---,0.00,VWS V14.01,2013-08-22 04:40:00,
2013-08-21 23:41:00,76.6,69.6,30.02,SW,217,0.0,0.0,79,0.00,,---,0.00,VWS V14.01,2013-08-22 04:41:00,
2013-08-21 23:46:00,76.5,69.5,30.02,SW,217,0.0,0.0,79,0.00,,---,0.00,VWS V14.01,2013-08-22 04:46:00,
2013-08-21 23:50:00,76.5,69.5,30.02,SW,217,0.0,0.0,79,0.00,,---,0.00,VWS V14.01,2013-08-22 04:50:00,
2013-08-21 23:51:00,76.4,69.4,30.03,SW,217,0.0,0.0,79,0.00,,---,0.00,VWS V14.01,2013-08-22 04:51:00,
2013-08-21 23:56:00,76.3,69.3,30.03,SW,217,0.0,0.0,79,0.00,,---,0.00,VWS V14.01,2013-08-22 04:56:00,